This demonstration page uses our WeatherBlox Daily Observations layout. Learn more.

Left ArrowRight Arrow

Hourly Observations for June 18, 2015

Temp ( °F °C ) Dew Point ( °F °C ) Humidity (%) Winds ( mph kmh ) Pressure ( in mb ) Visibility ( mi km ) Precip ( " mm )
12:54 am 00:54 Clear 70 21.1 63 17.2 79 79 NE 3 6 29.96 1015 10 16.0934 N/A
1:54 am 01:54 Mostly Clear 69 20.6 64 17.8 84 84 N 7 11 29.96 1015 10 16.0934 N/A
2:54 am 02:54 Cloudy 69 20.6 64 17.8 84 84 N 3 6 29.95 1014 10 16.0934 N/A
3:54 am 03:54 Mostly Clear 69 20.6 61 16.1 76 76 N N/A 29.95 1014 10 16.0934 N/A
4:54 am 04:54 Mostly Clear 69 20.6 62 16.7 78 78 E 7 11 29.95 1014 10 16.0934 N/A
5:54 am 05:54 Mostly Cloudy 69 20.6 61 16.1 76 76 ENE 8 13 29.96 1014 10 16.0934 N/A
6:54 am 06:54 Cloudy 69 20.6 61 16.1 76 76 E 7 11 29.97 1015 10 16.0934 N/A
7:54 am 07:54 Cloudy 70 21.1 61 16.1 73 73 ENE 7 11 29.98 1015 10 16.0934 N/A
8:54 am 08:54 Cloudy 70 21.1 61 16.1 73 73 E 8 13 29.99 1016 10 16.0934 N/A
9:27 am 09:27 Cloudy with Nearby Thunderstorms 70 21.1 62 16.7 76 76 N 7 11 30 1016 10 16.0934 N/A
9:43 am 09:43 Cloudy with Light Rain 69 20.6 61 16.1 76 76 NNW 24 39 30.06 1018 7 11.26538 N/A
9:48 am 09:48 Cloudy with Heavy Thunderstorms 66 19 63 17 88 88 NNW 28 44 30.06 1018 3 4.82802 N/A
9:51 am 09:51 Cloudy with Heavy Thunderstorms 66 19 63 17 88 88 NNW 31 50 30.06 1018 1.75 2.816345 0.07 1.778
9:54 am 09:54 Cloudy with Heavy Thunderstorms 65 18.3 62 16.7 90 90 NNW 26 43 30.06 1018 1.5 2.41401 0.12 3.048
10:23 am 10:23 Cloudy with Nearby Thunderstorms 63 17.2 61 16.1 93 93 NE 16 26 30.06 1018 2 3.21868 0.38 9.652
10:33 am 10:33 Cloudy with Rain 63 17 61 16 94 94 NE 18 30 30.06 1018 3 4.82802 N/A
10:54 am 10:54 Cloudy with Rain 63 17.2 61 16.1 93 93 ENE 17 28 30.01 1016 3 4.82802 0.43 10.922
11:54 am 11:54 Mostly Cloudy with Light Rain 65 18.3 62 16.7 90 90 E 22 35 29.97 1015 7 11.26538 0.05 1.27
12:54 pm 12:54 Sunny 72 22.2 63 17.2 73 73 ENE 12 19 29.99 1016 10 16.0934 N/A
1:54 pm 13:54 Sunny 74 23.3 62 16.7 67 67 NE 13 20 30.01 1016 10 16.0934 N/A
2:54 pm 14:54 Cloudy 75 23.9 62 16.7 64 64 NE 14 22 30 1016 10 16.0934 N/A
3:54 pm 15:54 Mostly Cloudy 75 23.9 62 16.7 64 64 NE 12 19 30 1016 10 16.0934 N/A
4:54 pm 16:54 Mostly Sunny 77 25 62 16.7 60 60 ENE 10 17 29.99 1016 10 16.0934 N/A
5:54 pm 17:54 Sunny 76 24.4 60 15.6 58 58 NE 13 20 30 1016 10 16.0934 N/A
6:54 pm 18:54 Mostly Sunny 75 23.9 63 17.2 66 66 NE 14 22 30.01 1016 10 16.0934 N/A
7:54 pm 19:54 Sunny 73 22.8 63 17.2 71 71 NE 10 17 30.01 1016 10 16.0934 N/A
8:54 pm 20:54 Sunny 70 21.1 62 16.7 76 76 NE 8 13 30.03 1017 10 16.0934 N/A
9:54 pm 21:54 Clear 66 18.9 62 16.7 87 87 NNE 7 11 30.05 1018 10 16.0934 N/A
10:54 pm 22:54 Clear 64 17.8 61 16.1 90 90 N 7 11 30.07 1018 10 16.0934 N/A
11:54 pm 23:54 Clear 64 17.8 60 15.6 87 87 N 5 7 30.07 1018 10 16.0934 N/A

Powered by AerisWeather